Year,Month,Day,Hour,Minute,Value (Times are PST for temperature in C)
2012,10,12,13,47,11.90
2012,10,12,13,48,11.90
2012,10,12,13,53,12.20
2012,10,12,13,54,12.20
2012,10,12,13,55,12.30
2012,10,12,13,56,12.30
2012,10,12,13,57,12.30
2012,10,12,13,58,12.30
2012,10,12,13,59,12.30
2012,10,12,14,00,12.30
2012,10,12,14,01,12.30
2012,10,12,14,02,12.30
2012,10,12,14,03,12.30
2012,10,12,14,04,12.30
2012,10,12,14,05,12.30
2012,10,12,14,06,12.30
2012,10,12,14,07,12.20
2012,10,12,14,08,12.20
2012,10,12,14,09,12.20
2012,10,12,14,10,12.20
2012,10,12,14,11,12.20
2012,10,12,14,12,12.20
2012,10,12,14,13,12.20
2012,10,12,14,14,12.20
2012,10,12,14,15,12.20
2012,10,12,14,16,12.20
2012,10,12,14,17,12.30
2012,10,12,14,18,12.30
2012,10,12,14,19,12.30
2012,10,12,14,20,12.30
2012,10,12,14,21,12.30
2012,10,12,14,22,12.30
2012,10,12,14,23,12.30
2012,10,12,14,24,12.30
2012,10,12,14,25,12.30
2012,10,12,14,26,12.30
2012,10,12,14,27,12.30
2012,10,12,14,28,12.30
2012,10,12,14,29,12.30
2012,10,12,14,30,12.30
2012,10,12,14,31,12.30
2012,10,12,14,32,12.20
2012,10,12,14,33,12.20
2012,10,12,14,34,12.30
2012,10,12,14,35,12.30
2012,10,12,14,36,12.30
2012,10,12,14,37,12.30
2012,10,12,14,38,12.30
2012,10,12,14,39,12.40
2012,10,12,14,40,12.40
2012,10,12,14,41,12.40
2012,10,12,14,42,12.40
2012,10,12,14,43,12.40
2012,10,12,14,44,12.40
2012,10,12,14,45,12.40
2012,10,12,14,46,12.40
2012,10,12,14,47,12.40
2012,10,12,14,48,12.50
2012,10,12,14,49,12.50
2012,10,12,14,50,12.50
2012,10,12,14,51,12.50
2012,10,12,14,52,12.50
2012,10,12,14,53,12.50
2012,10,12,14,54,12.50
2012,10,12,14,55,12.50
2012,10,12,14,56,12.50
2012,10,12,14,57,12.50
2012,10,12,14,58,12.50
2012,10,12,14,59,12.50
2012,10,12,15,00,12.50
2012,10,12,15,01,12.50
2012,10,12,15,02,12.50
2012,10,12,15,03,12.50
2012,10,12,15,04,12.50
2012,10,12,15,05,12.60
2012,10,12,15,06,12.60
2012,10,12,15,07,12.60
2012,10,12,15,08,12.60
2012,10,12,15,09,12.60
2012,10,12,15,10,12.60
2012,10,12,15,11,12.60
2012,10,12,15,12,12.60
2012,10,12,15,13,12.60
2012,10,12,15,14,12.60
2012,10,12,15,15,12.60
2012,10,12,15,16,12.60
2012,10,12,15,17,12.60
2012,10,12,15,18,12.60
2012,10,12,15,19,12.60
2012,10,12,15,20,12.60
2012,10,12,15,21,12.60
2012,10,12,15,22,12.60
2012,10,12,15,23,12.60
2012,10,12,15,24,12.60
2012,10,12,15,25,12.60
2012,10,12,15,26,12.50
2012,10,12,15,27,12.50
2012,10,12,15,28,12.50
2012,10,12,15,29,12.50
2012,10,12,15,30,12.50
2012,10,12,15,31,12.50
2012,10,12,15,32,12.50
2012,10,12,15,33,12.50
2012,10,12,15,34,12.50
2012,10,12,15,35,12.40
2012,10,12,15,36,12.40
2012,10,12,15,37,12.40
2012,10,12,15,38,12.40
2012,10,12,15,39,12.40
2012,10,12,15,40,12.40
2012,10,12,15,41,12.40
2012,10,12,15,42,12.50
2012,10,12,15,43,12.50
2012,10,12,15,44,12.50
2012,10,12,15,45,12.50
2012,10,12,15,46,12.50
2012,10,12,15,47,12.60
2012,10,12,15,48,12.60
2012,10,12,15,49,12.60
2012,10,12,15,50,12.60
2012,10,12,15,51,12.50
2012,10,12,15,52,12.50
2012,10,12,15,53,12.50
2012,10,12,15,54,12.50
2012,10,12,15,55,12.50
2012,10,12,15,56,12.50
2012,10,12,15,57,12.50
2012,10,12,15,58,12.40
2012,10,12,15,59,12.40
2012,10,12,16,00,12.30
2012,10,12,16,01,12.30
2012,10,12,16,02,12.30
2012,10,12,16,03,12.30
2012,10,12,16,04,12.40
2012,10,12,16,05,12.40
2012,10,12,16,06,12.40
2012,10,12,16,07,12.40
2012,10,12,16,08,12.40
2012,10,12,16,09,12.40
2012,10,12,16,10,12.40
2012,10,12,16,11,12.40
2012,10,12,16,12,12.40
2012,10,12,16,13,12.40
2012,10,12,16,14,12.40
2012,10,12,16,15,12.50
2012,10,12,16,16,12.50
2012,10,12,16,17,12.40
2012,10,12,16,18,12.40
2012,10,12,16,19,12.40
2012,10,12,16,20,12.40
2012,10,12,16,21,12.40
2012,10,12,16,22,12.40
2012,10,12,16,23,12.40
2012,10,12,16,24,12.30
2012,10,12,16,25,12.30
2012,10,12,16,26,12.30
2012,10,12,16,27,12.30
2012,10,12,16,28,12.30
2012,10,12,16,29,12.30
2012,10,12,16,30,12.30
2012,10,12,16,31,12.30
2012,10,12,16,32,12.30
2012,10,12,16,33,12.30
2012,10,12,16,34,12.20
2012,10,12,16,35,12.20
2012,10,12,16,36,12.20
2012,10,12,16,37,12.20
2012,10,12,16,38,12.20
2012,10,12,16,39,12.20
2012,10,12,16,40,12.20
2012,10,12,16,41,12.20
2012,10,12,16,42,12.20
2012,10,12,16,43,12.20
2012,10,12,16,44,12.20
2012,10,12,16,45,12.20
2012,10,12,16,46,12.10
2012,10,12,16,47,12.10
2012,10,12,16,48,12.10
2012,10,12,16,49,12.10
2012,10,12,16,50,12.00
2012,10,12,16,51,12.00
2012,10,12,16,52,12.10
2012,10,12,16,53,12.10
2012,10,12,16,54,12.10
2012,10,12,16,55,12.10
2012,10,12,16,56,12.10
2012,10,12,16,57,12.10
2012,10,12,16,58,12.10
2012,10,12,16,59,12.10
2012,10,12,17,00,12.10
2012,10,12,17,01,12.10
2012,10,12,17,02,12.10
2012,10,12,17,03,12.10
2012,10,12,17,04,12.10
2012,10,12,17,05,12.10
2012,10,12,17,06,12.10
2012,10,12,17,07,12.10
2012,10,12,17,08,12.10
2012,10,12,17,09,12.10
2012,10,12,17,10,12.10
2012,10,12,17,11,12.10
2012,10,12,17,12,12.10
2012,10,12,17,13,12.10
2012,10,12,17,14,12.10
2012,10,12,17,15,12.10
2012,10,12,17,16,12.10
2012,10,12,17,17,12.10
2012,10,12,17,18,12.10
2012,10,12,17,19,12.10
2012,10,12,17,20,12.10
2012,10,12,17,21,12.10
2012,10,12,17,22,12.10
2012,10,12,17,23,12.00
2012,10,12,17,24,12.00
2012,10,12,17,25,12.00
2012,10,12,17,26,12.00
2012,10,12,17,27,12.00
2012,10,12,17,28,12.00
2012,10,12,17,29,11.90
2012,10,12,17,30,11.90
2012,10,12,17,31,11.90
2012,10,12,17,32,11.90
2012,10,12,17,33,11.90
2012,10,12,17,34,11.90
2012,10,12,17,35,11.90
2012,10,12,17,36,11.90
2012,10,12,17,37,11.90
2012,10,12,17,38,11.90
2012,10,12,17,39,11.90
2012,10,12,17,40,11.90
2012,10,12,17,41,11.90
2012,10,12,17,42,11.90
2012,10,12,17,43,11.90
2012,10,12,17,44,11.90
2012,10,12,17,45,11.90
2012,10,12,17,46,11.90
2012,10,12,17,47,11.90
2012,10,12,17,48,11.90
2012,10,12,17,49,11.90
2012,10,12,17,50,11.90
2012,10,12,17,51,11.90
2012,10,12,17,52,11.90
2012,10,12,17,53,11.90
2012,10,12,17,54,11.90
2012,10,12,17,55,11.90
2012,10,12,17,56,11.90
2012,10,12,17,57,11.90
2012,10,12,17,58,11.80
2012,10,12,17,59,11.80
2012,10,12,18,00,11.80
2012,10,12,18,01,11.80
2012,10,12,18,02,11.80
2012,10,12,18,03,11.80
2012,10,12,18,04,11.80
2012,10,12,18,05,11.80
2012,10,12,18,06,11.80
2012,10,12,18,07,11.80
2012,10,12,18,08,11.80
2012,10,12,18,09,11.80
2012,10,12,18,10,11.80
2012,10,12,18,11,11.80
2012,10,12,18,12,11.80
2012,10,12,18,13,11.80
2012,10,12,18,14,11.80
2012,10,12,18,15,11.80
2012,10,12,18,16,11.80
2012,10,12,18,17,11.80
2012,10,12,18,18,11.80
2012,10,12,18,19,11.80
2012,10,12,18,20,11.80
2012,10,12,18,21,11.80
2012,10,12,18,22,11.80
2012,10,12,18,23,11.80
2012,10,12,18,24,11.80
2012,10,12,18,25,11.80
2012,10,12,18,26,11.80
2012,10,12,18,27,11.80
2012,10,12,18,28,11.80
2012,10,12,18,29,11.80
2012,10,12,18,30,11.80
2012,10,12,18,31,11.80
2012,10,12,18,32,11.80
2012,10,12,18,33,11.80
2012,10,12,18,34,11.80
2012,10,12,18,35,11.80
2012,10,12,18,36,11.80
2012,10,12,18,37,11.70
2012,10,12,18,38,11.70
2012,10,12,18,39,11.70
2012,10,12,18,40,11.70
2012,10,12,18,41,11.70
2012,10,12,18,42,11.70
2012,10,12,18,43,11.70
2012,10,12,18,44,11.70
2012,10,12,18,45,11.70
2012,10,12,18,46,11.70
2012,10,12,18,47,11.70
2012,10,12,18,48,11.70
2012,10,12,18,49,11.70
2012,10,12,18,50,11.70
2012,10,12,18,51,11.70
2012,10,12,18,52,11.70
2012,10,12,18,53,11.70
2012,10,12,18,54,11.60
2012,10,12,18,55,11.60
2012,10,12,18,56,11.60
2012,10,12,18,57,11.60
2012,10,12,18,58,11.60
2012,10,12,18,59,11.60
2012,10,12,19,00,11.70
2012,10,12,19,01,11.70
2012,10,12,19,02,11.70
2012,10,12,19,03,11.70
2012,10,12,19,04,11.70
2012,10,12,19,05,11.80
2012,10,12,19,06,11.80
2012,10,12,19,07,11.80
2012,10,12,19,08,11.80
2012,10,12,19,09,11.80
2012,10,12,19,10,11.80
2012,10,12,19,11,11.80
2012,10,12,19,12,11.70
2012,10,12,19,13,11.70
2012,10,12,19,14,11.70
2012,10,12,19,15,11.70
2012,10,12,19,16,11.70
2012,10,12,19,17,11.70
2012,10,12,19,18,11.60
2012,10,12,19,19,11.60
2012,10,12,19,20,11.60
2012,10,12,19,21,11.60
2012,10,12,19,22,11.60
2012,10,12,19,23,11.60
2012,10,12,19,24,11.60
2012,10,12,19,25,11.60
2012,10,12,19,26,11.60
2012,10,12,19,27,11.60
2012,10,12,19,28,11.60
2012,10,12,19,29,11.60
2012,10,12,19,30,11.60
2012,10,12,19,31,11.60
2012,10,12,19,32,11.60
2012,10,12,19,33,11.60
2012,10,12,19,34,11.50
2012,10,12,19,35,11.40
2012,10,12,19,36,11.40
2012,10,12,19,37,11.40
2012,10,12,19,38,11.40
2012,10,12,19,39,11.40
2012,10,12,19,40,11.40
2012,10,12,19,41,11.40
2012,10,12,19,42,11.40
2012,10,12,19,43,11.40
2012,10,12,19,44,11.40
2012,10,12,19,45,11.40
2012,10,12,19,46,11.40
2012,10,12,19,47,11.40
2012,10,12,19,48,11.40
2012,10,12,19,49,11.40
2012,10,12,19,50,11.40
2012,10,12,19,51,11.40
2012,10,12,19,52,11.40
2012,10,12,19,53,11.40
2012,10,12,19,54,11.40
2012,10,12,19,55,11.40
2012,10,12,19,56,11.40
2012,10,12,19,57,11.40
2012,10,12,19,58,11.40
2012,10,12,19,59,11.40
2012,10,12,20,00,11.40
2012,10,12,20,01,11.40
2012,10,12,20,02,11.40
2012,10,12,20,03,11.40
2012,10,12,20,04,11.40
2012,10,12,20,05,11.40
2012,10,12,20,06,11.40
2012,10,12,20,07,11.40
2012,10,12,20,08,11.40
2012,10,12,20,09,11.30
2012,10,12,20,10,11.30
2012,10,12,20,11,11.30
2012,10,12,20,12,11.30
2012,10,12,20,13,11.30
2012,10,12,20,14,11.30
2012,10,12,20,15,11.30
2012,10,12,20,16,11.30
2012,10,12,20,17,11.30
2012,10,12,20,18,11.30
2012,10,12,20,19,11.30
2012,10,12,20,20,11.30
2012,10,12,20,21,11.30
2012,10,12,20,22,11.30
2012,10,12,20,23,11.30
2012,10,12,20,24,11.30
2012,10,12,20,25,11.30
2012,10,12,20,26,11.30
2012,10,12,20,27,11.30
2012,10,12,20,28,11.30
2012,10,12,20,29,11.30
2012,10,12,20,30,11.30
2012,10,12,20,31,11.30
2012,10,12,20,32,11.30
2012,10,12,20,33,11.30
2012,10,12,20,34,11.30
2012,10,12,20,35,11.30
2012,10,12,20,36,11.30
2012,10,12,20,37,11.30
2012,10,12,20,38,11.30
2012,10,12,20,39,11.30
2012,10,12,20,40,11.30
2012,10,12,20,41,11.30
2012,10,12,20,42,11.30
2012,10,12,20,43,11.30
2012,10,12,20,44,11.30
2012,10,12,20,45,11.30
2012,10,12,20,46,11.30
2012,10,12,20,47,11.30
2012,10,12,20,48,11.40
2012,10,12,20,49,11.40
2012,10,12,20,50,11.40
2012,10,12,20,51,11.40
2012,10,12,20,52,11.40
2012,10,12,20,53,11.40
2012,10,12,20,54,11.40
2012,10,12,20,55,11.40
2012,10,12,20,56,11.30
2012,10,12,20,57,11.30
2012,10,12,20,58,11.30
2012,10,12,20,59,11.30
2012,10,12,21,00,11.30
2012,10,12,21,01,11.30
2012,10,12,21,02,11.30
2012,10,12,21,03,11.30
2012,10,12,21,04,11.30
2012,10,12,21,05,11.30
2012,10,12,21,06,11.30
2012,10,12,21,07,11.30
2012,10,12,21,08,11.30
2012,10,12,21,09,11.30
2012,10,12,21,10,11.30
2012,10,12,21,11,11.30
2012,10,12,21,12,11.20
2012,10,12,21,13,11.20
2012,10,12,21,14,11.20
2012,10,12,21,15,11.20
2012,10,12,21,16,11.20
2012,10,12,21,17,11.20
2012,10,12,21,18,11.20
2012,10,12,21,19,11.20
2012,10,12,21,20,11.20
2012,10,12,21,21,11.20
2012,10,12,21,22,11.20
2012,10,12,21,23,11.20
2012,10,12,21,24,11.20
2012,10,12,21,25,11.20
2012,10,12,21,26,11.20
2012,10,12,21,27,11.20
2012,10,12,21,28,11.20
2012,10,12,21,29,11.20
2012,10,12,21,30,11.20
2012,10,12,21,31,11.20
2012,10,12,21,32,11.20
2012,10,12,21,33,11.20
2012,10,12,21,34,11.20
2012,10,12,21,35,11.20
2012,10,12,21,36,11.20
2012,10,12,21,37,11.20
2012,10,12,21,38,11.20
2012,10,12,21,39,11.20
2012,10,12,21,40,11.20
2012,10,12,21,41,11.20
2012,10,12,21,42,11.20
2012,10,12,21,43,11.20
2012,10,12,21,44,11.20
2012,10,12,21,45,11.20
2012,10,12,21,46,11.20
2012,10,12,21,47,11.20
2012,10,12,21,48,11.20
2012,10,12,21,49,11.20
2012,10,12,21,50,11.20
2012,10,12,21,51,11.20
2012,10,12,21,52,11.20
2012,10,12,21,53,11.20
2012,10,12,21,54,11.20
2012,10,12,21,55,11.20
2012,10,12,21,56,11.20
2012,10,12,21,57,11.20
2012,10,12,21,58,11.30
2012,10,12,21,59,11.30
2012,10,12,22,00,11.30
2012,10,12,22,01,11.30
2012,10,12,22,02,11.30
2012,10,12,22,03,11.30
2012,10,12,22,04,11.30
2012,10,12,22,05,11.30
2012,10,12,22,06,11.30
2012,10,12,22,07,11.30
2012,10,12,22,08,11.30
2012,10,12,22,09,11.30
2012,10,12,22,10,11.30
2012,10,12,22,11,11.30
2012,10,12,22,12,11.30
2012,10,12,22,13,11.30
2012,10,12,22,14,11.30
2012,10,12,22,15,11.30
2012,10,12,22,16,11.30
2012,10,12,22,17,11.30
2012,10,12,22,18,11.30
2012,10,12,22,19,11.30
2012,10,12,22,20,11.30
2012,10,12,22,21,11.30
2012,10,12,22,22,11.30
2012,10,12,22,23,11.30
2012,10,12,22,24,11.30
2012,10,12,22,25,11.30
2012,10,12,22,26,11.30
2012,10,12,22,27,11.30
2012,10,12,22,28,11.30
2012,10,12,22,29,11.30
2012,10,12,22,30,11.40
2012,10,12,22,31,11.40
2012,10,12,22,32,11.40
2012,10,12,22,33,11.40
2012,10,12,22,34,11.40
2012,10,12,22,35,11.40
2012,10,12,22,36,11.40
2012,10,12,22,37,11.40
2012,10,12,22,38,11.40
2012,10,12,22,39,11.30
2012,10,12,22,40,11.30
2012,10,12,22,41,11.30
2012,10,12,22,42,11.30
2012,10,12,22,43,11.30
2012,10,12,22,44,11.30
2012,10,12,22,45,11.30
2012,10,12,22,46,11.30
2012,10,12,22,47,11.30
2012,10,12,22,48,11.30
2012,10,12,22,49,11.30
2012,10,12,22,50,11.30
2012,10,12,22,51,11.30
2012,10,12,22,52,11.30
2012,10,12,22,53,11.30
2012,10,12,22,54,11.30
2012,10,12,22,55,11.30
2012,10,12,22,56,11.30
2012,10,12,22,57,11.30
2012,10,12,22,58,11.30
2012,10,12,22,59,11.30
2012,10,12,23,00,11.30
2012,10,12,23,01,11.30
2012,10,12,23,02,11.30
2012,10,12,23,03,11.30
2012,10,12,23,04,11.30
2012,10,12,23,05,11.30
2012,10,12,23,06,11.30
2012,10,12,23,07,11.30
2012,10,12,23,08,11.30
2012,10,12,23,09,11.30
2012,10,12,23,10,11.30
2012,10,12,23,11,11.30
2012,10,12,23,12,11.30
2012,10,12,23,13,11.30
2012,10,12,23,14,11.30
2012,10,12,23,15,11.30
2012,10,12,23,16,11.30
2012,10,12,23,17,11.30
2012,10,12,23,18,11.30
2012,10,12,23,19,11.30
2012,10,12,23,20,11.30
2012,10,12,23,21,11.30
2012,10,12,23,22,11.30
2012,10,12,23,23,11.30
2012,10,12,23,24,11.20
2012,10,12,23,25,11.20
2012,10,12,23,26,11.20
2012,10,12,23,27,11.20
2012,10,12,23,28,11.20
2012,10,12,23,29,11.20
2012,10,12,23,30,11.20
2012,10,12,23,31,11.20
2012,10,12,23,32,11.20
2012,10,12,23,33,11.20
2012,10,12,23,34,11.20
2012,10,12,23,35,11.20
2012,10,12,23,36,11.20
2012,10,12,23,37,11.10
2012,10,12,23,38,11.10
2012,10,12,23,39,11.10
2012,10,12,23,40,11.10
2012,10,12,23,41,11.10
2012,10,12,23,42,11.10
2012,10,12,23,43,11.10
2012,10,12,23,44,11.10
2012,10,12,23,45,11.10
2012,10,12,23,46,11.10
2012,10,12,23,47,11.10
2012,10,12,23,48,11.10
2012,10,12,23,49,11.10
2012,10,12,23,50,11.10
2012,10,12,23,51,11.10
2012,10,12,23,52,11.10
2012,10,12,23,53,11.10
2012,10,12,23,54,11.10
2012,10,12,23,55,11.10
2012,10,12,23,56,11.10
2012,10,12,23,57,11.10
2012,10,12,23,58,11.10
2012,10,12,23,59,11.10
